SL-8 DEB, 1478

Orbit data source: Space-Track

SL-8 DEB, 1478 is space debris in LEO originally from a launch on Mon, 15 Mar 1965 UTC launched from the Tyuratam Missile And Space Complex (TTMTR). Debris objects in space refer to the collection of defunct objects orbiting the Earth. Examples of debris include non-operational satellites, rocket bodies, and fragments generated from explosions, collisions, or faulty payload assembly.

Loading next visibility...
Identifier
1478, 1965-020BC
Orbit
LEO
Country
Flag of CISCIS
Related business
Manufacturer
Unknown
Mission
Spacecraft
Bus & Motor
Unknown
Mass
Unknown
Launch date (UTC)
1965-03-15 (61 years ago)
Launch vehicle
Unknown
Launch site
Tyuratam Missile And Space Complex (TTMTR)
Object type
Payload
Rocket body
Debris
Shape & HBR
Unknown shape, 0.1 m
Radar Cross Section
Medium (>0.1 m² and <1 m²)

Expand to show TLE details & history
Last TLE update: 22 hours ago

TLE from 22 hours ago
0 SL-8 DEB
1  1478U 65020BC  26014.59100391  .00001397  00000-0  71775-3 0  9994
2  1478  56.0778 131.3275 0589659 343.7935  14.4849 13.55154702904043
Epoch: 2026-01-14T14:11Z
TLE epoch observation values (Epoch: 2026-01-14T14:11:02.737Z)
Latitude
-0.00008°
Longitude
164.50924°
Altitude
631.964 km
Speed
7.754 km/s
True Right ascension
08h 45m 18s
True Declination
0° 00' 00"
Sunlit
Object was in full shadow at epoch
Visualization orbit readout
Latitude
Unknown
Longitude
Unknown
Altitude
Unknown
Speed
Unknown
Apparent Right ascension
Unknown
Apparent Declination
Unknown
Sunlit
N/A
Visualization observer readout
Local Sidereal Time
13:19:11
Azimuth
Unknown
Elevation
Unknown
Doppler factor
Unknown
Orbital elements
Apogee altitude
1,491.356 km
Perigee altitude
614.969 km
Semi-major axis
7,431.299 km
Eccentricity
0.05897
Inclination
56.0778°
RAAN
131.3275°
Arg. of periapsis
343.7935°
True anomaly
16.30413°
Mean anomaly
14.4849°
Eccentric anomaly
15.381°
Mean motion
3.38802 °/min
Orbital period
106.26 mins
BSTAR
0.00071775
Loading maneuver chart data...
Computing Atmospheric mass density...
Loading historical data...
Loading historical data...
Loading historical data...
Loading historical data...
Loading historical data...
Loading historical data...
Loading historical data...

Documentation

Showing up to 5 results
|